Home   Weather   Geraldton   Past weeks

Flag for Australia Past Weather in Geraldton, Western Australia, Australia — Yesterday and Last 2 Weeks

Now
80 °F

Warm.


Feels Like: 80 °F
Forecast: 66 / 79 °F
Wind: 22 mph from South

Location: Geraldton Airport

Current Time: Jan 20, 2017 at 3:45:39 pm

Latest Report: Jan 20, 2017 at 2:00 pm


Visibility: N/A

Pressure: 29.73 "Hg

Humidity: 41%

Dew Point: 54 °F

Location of GeraldtonLocation

Past Weather in Geraldton — Graph

°F

Geraldton Temperature Yesterday

Maximum temperature yesterday: 75 °F (at 2:00 pm)
Minimum temperature yesterday: 66 °F (at 9:00 pm)
Average temperature yesterday: 70 °F

High & Low Weather Summary for the Past Weeks

 TemperatureHumidityPressure
High101 °F (Jan 14, 11:00 am)98% (Jan 11, 5:00 am)29.90 "Hg (Jan 11, 5:00 am)
Low55 °F (Jan 13, 5:00 am)15% (Jan 14, 11:00 am)29.64 "Hg (Jan 11, 6:00 pm)
Average73 °F62%29.77 "Hg
* Reported Jan 5 2:00 pm — Jan 20 2:00 pm, Geraldton, Weather by CustomWeather, © 2017

Note: Actual official high and low records may vary slightly from our data, if they occured in-between our weather recording intervals... More about our weather records

Advertising

Geraldton Weather History for the Previous 24 Hours

Scroll right to see more
 ConditionsComfort  
Time TempWeatherWind HumidityBarometerVisibility
2:00 pm
Fri, Jan 20
80 °FWarm.22 mph41%29.73 "HgN/A
12:00 pm82 °FPleasantly warm.16 mph39%29.76 "HgN/A
11:00 am81 °FPleasantly warm.15 mph39%29.78 "HgN/A
9:00 am72 °FMild.7 mph52%29.82 "HgN/A
8:00 am67 °FMild.12 mph65%29.83 "HgN/A
6:00 am58 °FCool.8 mph87%29.83 "HgN/A
5:00 am61 °FCool.10 mph82%29.82 "HgN/A
3:00 am62 °FCool.12 mph81%29.83 "HgN/A
2:00 am61 °FCool.8 mph78%29.83 "HgN/A
12:00 am67 °FPassing clouds.16 mph70%29.86 "HgN/A
11:00 pm
Thu, Jan 19
66 °FMild.20 mph67%29.86 "HgN/A
9:00 pm66 °FMild.20 mph67%29.85 "HgN/A
8:00 pm67 °FMild.21 mph67%29.84 "HgN/A
6:00 pm70 °FMild.24 mph53%29.82 "HgN/A
5:00 pm72 °FMild.29 mph48%29.82 "HgN/A
3:00 pm74 °FMild.25 mph46%29.84 "HgN/A
Weather by CustomWeather, © 2017

See weather overviewHow to use our weather pages